#�ϑ�����,���ϕ���,���ϕ���,�ő啗��,�ő啗����������,�ő�u�ԕ���,�ő�u�ԕ�����������
#(�N����),(m/s)   ,(16����),(m/s)   ,(16����)        ,(m/s)       ,(16����)            
2012/8/18 0:01,0.3,15,0.4,16,0.4,16
2012/8/18 0:02,0.2,15,0.3,16,0.5,8
2012/8/18 0:59,0.4,16,0.4,16,0.6,1
2012/8/18 1:00,0.8,16,0.8,16,1.1,16
2012/8/18 1:01,0.9,1,0.9,1,1.5,1
2012/8/18 1:02,0.9,16,0.9,1,1.5,15
2012/8/18 1:03,1,16,1,16,1.6,16
2012/8/18 1:04,1,16,1,16,1.4,16
2012/8/18 1:05,1,16,1,16,1.3,16
2012/8/18 1:06,1,16,1,16,1.4,1
2012/8/18 1:07,1,16,1,16,1.3,16
2012/8/18 1:08,1,16,1,16,0.9,1
2012/8/18 1:09,0.9,16,1,16,0.8,1
2012/8/18 1:10,0.8,16,0.9,16,0.1,15
2012/8/18 1:11,0.8,16,0.8,16,0.8,16
2012/8/18 1:12,0.7,16,0.8,16,0.9,15
2012/8/18 1:13,0.7,16,0.7,16,0.6,15
2012/8/18 1:14,0.6,16,0.7,16,0.5,15
2012/8/18 1:15,0.5,16,0.6,16,0.1,13
2012/8/18 1:16,0.4,15,0.5,16,0.5,16
2012/8/18 1:17,0.3,15,0.4,16,0.4,16
2012/8/18 1:18,0.3,15,0.3,16,0.5,14
2012/8/18 1:19,0.3,15,0.3,16,0.6,14
2012/8/18 1:20,0.3,15,0.3,16,0.9,16
2012/8/18 1:21,0.3,15,0.3,16,0.8,16
2012/8/18 1:22,0.3,15,0.3,16,0.8,16
2012/8/18 1:23,0.3,15,0.3,16,1.5,1
2012/8/18 1:24,0.4,15,0.4,16,1.6,1
2012/8/18 1:25,0.5,16,0.5,16,1.5,16
2012/8/18 1:26,0.6,16,0.6,15,1.5,16
2012/8/18 1:27,0.7,16,0.7,16,1.5,16
2012/8/18 1:28,0.8,16,0.8,16,1.5,16
2012/8/18 1:29,0.8,16,0.8,16,1.3,1
2012/8/18 1:30,0.9,16,0.9,16,1.1,16
2012/8/18 1:31,0.9,16,0.9,16,1,1
2012/8/18 1:32,1,16,1,16,1.3,16
2012/8/18 1:33,1,16,1,16,1.5,16
2012/8/18 1:34,1,16,1,16,1.6,16
2012/8/18 1:35,1,16,1,16,1.9,16
2012/8/18 1:36,1.1,16,1.1,16,2.2,15
2012/8/18 1:37,1.1,16,1.1,16,2,16
2012/8/18 1:38,1.1,16,1.1,16,1.8,16
2012/8/18 1:39,1.1,16,1.1,16,1.5,15
2012/8/18 1:40,1.1,16,1.1,16,0.9,16
2012/8/18 1:41,1,16,1,16,0.4,14
2012/8/18 1:42,0.9,16,1,16,0.6,4
2012/8/18 1:43,0.9,16,0.9,16,0.8,3
2012/8/18 1:44,0.7,1,0.8,16,0.3,3
2012/8/18 1:45,0.6,1,0.7,16,0.4,2
2012/8/18 1:46,0.5,1,0.6,16,0.4,2
2012/8/18 1:47,0.4,2,0.5,16,0.5,1
2012/8/18 1:48,0.3,2,0.4,16,0.5,5
2012/8/18 1:49,0.3,3,0.3,16,0.5,5
2012/8/18 1:50,0.2,3,0.3,16,0.5,6
2012/8/18 1:51,0.2,3,0.2,16,0.4,16
2012/8/18 1:52,0.2,3,0.2,16,0.1,16
2012/8/18 1:53,0.2,2,0.2,16,0.1,12
2012/8/18 1:54,0.2,2,0.2,1,0.6,14
2012/8/18 1:55,0.3,1,0.3,1,1.1,13
2012/8/18 1:56,0.3,15,0.3,1,1,13
2012/8/18 1:57,0.4,14,0.4,2,1.8,12
2012/8/18 1:58,0.6,13,0.6,13,1.9,12
2012/8/18 1:59,0.7,13,0.7,13,1.5,12
2012/8/18 2:00,0.8,13,0.8,13,1.8,12
2012/8/18 2:01,0.9,12,0.9,12,1.5,11
2012/8/18 2:02,0.9,12,0.9,12,1,11
2012/8/18 2:03,1,12,1,12,0.6,11
2012/8/18 2:04,1,12,1,12,0.9,11
2012/8/18 2:05,1,12,1,12,1.8,13
2012/8/18 2:06,1,12,1,12,1.6,13
2012/8/18 2:07,0.9,12,1,12,1.3,12
2012/8/18 2:08,0.9,12,0.9,12,1.3,11
2012/8/18 2:09,0.8,12,0.8,12,1.3,12
2012/8/18 2:10,0.8,12,0.8,12,0.9,12
2012/8/18 2:11,0.8,12,0.8,12,1.5,12
2012/8/18 2:12,0.7,12,0.8,12,1,11
2012/8/18 2:13,0.8,12,0.8,12,1,12
2012/8/18 2:14,0.9,12,0.9,12,1.3,13
2012/8/18 2:15,0.9,12,0.9,12,1.3,13
2012/8/18 2:16,0.9,12,0.9,12,1.3,13
2012/8/18 2:17,0.9,12,0.9,12,1.3,12
2012/8/18 2:18,0.9,12,0.9,12,1.1,12
2012/8/18 2:19,0.9,12,0.9,12,1.3,11
2012/8/18 2:20,0.9,12,0.9,12,1.1,10
2012/8/18 2:21,0.9,12,0.9,12,1,9
2012/8/18 2:22,0.8,12,0.9,12,0.9,10
2012/8/18 2:23,0.8,11,0.8,12,0.4,9
2012/8/18 2:24,0.7,11,0.8,12,0.1,4
2012/8/18 2:25,0.6,10,0.7,12,0.5,8
2012/8/18 2:26,0.5,10,0.6,12,0.8,10
2012/8/18 2:27,0.5,10,0.5,12,1,9
2012/8/18 2:28,0.4,9,0.5,12,1,8
2012/8/18 2:29,0.4,9,0.4,12,0.6,8
2012/8/18 2:30,0.4,9,0.4,12,0.9,8
2012/8/18 2:31,0.3,9,0.4,12,0.4,8
2012/8/18 2:32,0.3,9,0.3,11,0.1,6
2012/8/18 2:33,0.3,9,0.3,11,0,12
2012/8/18 2:34,0.3,10,0.3,11,0,14
2012/8/18 2:35,0.2,11,0.3,10,0,14
2012/8/18 2:36,0.2,11,0.2,10,0.1,1
2012/8/18 2:37,0.1,13,0.2,10,0.3,16
2012/8/18 2:38,0.1,14,0.1,9,0.5,1
2012/8/18 2:39,0.2,15,0.2,9,0.9,1
2012/8/18 2:40,0.2,15,0.2,9,1.5,16
2012/8/18 2:41,0.3,16,0.3,9,1.8,1
2012/8/18 2:42,0.4,16,0.4,16,1.5,1
2012/8/18 2:43,0.5,16,0.5,16,1.5,1
2012/8/18 2:44,0.6,1,0.6,16,1.4,1
2012/8/18 2:45,0.7,1,0.7,1,1.3,1
2012/8/18 2:46,0.8,1,0.8,1,0.9,1
2012/8/18 2:47,0.8,1,0.8,1,0.5,1
2012/8/18 2:48,0.8,1,0.8,1,0.6,2
2012/8/18 2:49,0.7,1,0.8,1,0.3,16
2012/8/18 2:50,0.7,1,0.7,1,0.8,2
2012/8/18 2:51,0.6,1,0.7,1,0.5,2
2012/8/18 2:52,0.5,2,0.6,1,0.4,2
2012/8/18 2:53,0.4,2,0.5,1,0.5,3
2012/8/18 2:54,0.3,2,0.4,1,0.3,2
2012/8/18 2:55,0.3,2,0.3,1,0.8,3
2012/8/18 2:56,0.3,2,0.3,1,0.6,2
2012/8/18 2:57,0.3,2,0.3,1,0.5,2
2012/8/18 2:58,0.3,2,0.3,1,0.5,1
2012/8/18 2:59,0.3,2,0.3,1,0.6,16
2012/8/18 3:00,0.3,2,0.3,1,0.9,1
2012/8/18 3:01,0.3,2,0.3,1,1.1,1
2012/8/18 3:02,0.4,2,0.4,2,0.9,16
2012/8/18 3:03,0.4,1,0.4,2,0.8,1
2012/8/18 3:04,0.4,1,0.4,2,0.4,16
2012/8/18 3:05,0.4,1,0.4,2,0.5,16
2012/8/18 3:06,0.3,1,0.4,2,0.1,1
2012/8/18 3:07,0.3,1,0.3,2,0.1,15
2012/8/18 3:08,0.3,1,0.3,2,0.4,15
2012/8/18 3:09,0.3,1,0.3,2,0.4,15
2012/8/18 3:10,0.2,16,0.3,2,0,11
2012/8/18 3:11,0.2,16,0.2,2,0.4,8
2012/8/18 3:12,0.1,16,0.2,2,0.4,15
2012/8/18 3:13,0.1,16,0.1,1,0.4,15
2012/8/18 3:14,0.1,15,0.1,1,0.3,13
2012/8/18 3:15,0.1,15,0.1,1,0.1,15
2012/8/18 3:16,0.1,15,0.1,1,0,8
2012/8/18 3:17,0.1,14,0.1,1,0,8
2012/8/18 3:18,0.1,13,0.1,1,0.5,4
2012/8/18 3:19,0.1,5,0.1,16,0.6,4
2012/8/18 3:20,0.2,4,0.2,16,0.6,4
2012/8/18 3:21,0.2,4,0.2,16,0.6,3
2012/8/18 3:22,0.2,4,0.2,4,0.4,16
2012/8/18 3:23,0.2,4,0.2,4,0.6,1
2012/8/18 3:24,0.2,4,0.2,4,0.9,1
2012/8/18 3:25,0.3,3,0.3,4,0.6,2
2012/8/18 3:26,0.3,2,0.3,4,0.5,2
2012/8/18 3:27,0.3,2,0.3,4,0.4,2
2012/8/18 3:28,0.3,2,0.3,4,0.5,16
2012/8/18 3:29,0.3,2,0.3,4,0.3,2
2012/8/18 3:30,0.2,1,0.3,4,0.1,1
2012/8/18 3:31,0.2,1,0.2,4,0.1,1
2012/8/18 3:32,0.2,1,0.2,4,0.4,16
2012/8/18 3:33,0.2,1,0.2,4,0.5,1
2012/8/18 3:34,0.2,2,0.2,4,0.8,2
2012/8/18 3:35,0.2,2,0.2,3,0.9,1
2012/8/18 3:36,0.3,1,0.3,2,1.3,16
2012/8/18 3:37,0.4,1,0.4,1,1.4,16
2012/8/18 3:38,0.4,1,0.4,1,1.3,2
2012/8/18 3:39,0.5,1,0.5,1,1.1,1
2012/8/18 3:40,0.5,1,0.5,1,0.8,1
2012/8/18 3:41,0.6,1,0.6,1,0.5,16
2012/8/18 3:42,0.6,1,0.6,1,0.4,2
2012/8/18 3:43,0.6,1,0.6,1,0.5,5
2012/8/18 3:44,0.5,1,0.5,1,0.4,2
2012/8/18 3:45,0.5,1,0.5,1,0.5,1
2012/8/18 3:46,0.4,1,0.5,1,0.6,1
2012/8/18 3:47,0.4,2,0.4,1,0.6,2
2012/8/18 3:48,0.3,2,0.4,1,0.9,1
2012/8/18 3:49,0.4,1,0.4,1,1.1,16
2012/8/18 3:50,0.4,2,0.4,1,1,1
2012/8/18 3:51,0.4,2,0.4,1,1,1
2012/8/18 3:52,0.5,1,0.5,1,1.3,1
2012/8/18 3:53,0.6,1,0.6,1,1.4,1
2012/8/18 3:54,0.7,1,0.7,1,1.5,1
2012/8/18 3:55,0.8,1,0.8,1,1.4,16
2012/8/18 3:56,0.8,1,0.8,1,1.1,16
2012/8/18 3:57,0.9,1,0.9,1,1,16
2012/8/18 3:58,0.9,1,0.9,1,0.8,16
2012/8/18 3:59,0.8,1,0.9,1,0.5,15
2012/8/18 4:00,0.7,1,0.8,1,0.3,16
2012/8/18 4:01,0.7,1,0.7,1,0.5,2
2012/8/18 4:02,0.6,1,0.7,1,0.5,2
2012/8/18 4:03,0.5,1,0.6,1,0.5,2
2012/8/18 4:04,0.4,1,0.5,1,0.6,2
2012/8/18 4:05,0.4,1,0.4,1,1,16
2012/8/18 4:06,0.4,1,0.4,1,1.3,16
2012/8/18 4:07,0.4,1,0.4,1,1.3,16
2012/8/18 4:08,0.4,1,0.4,1,1.1,16
2012/8/18 4:09,0.5,1,0.5,1,1.4,16
2012/8/18 4:10,0.6,1,0.6,1,1.3,16
2012/8/18 4:11,0.6,1,0.6,1,1.3,15
2012/8/18 4:12,0.7,16,0.7,1,1,16
2012/8/18 4:13,0.7,16,0.7,1,0.6,16
2012/8/18 4:14,0.7,16,0.7,1,0.4,16
2012/8/18 4:15,0.6,16,0.7,1,0.5,4
2012/8/18 4:16,0.6,1,0.6,1,0.6,4
2012/8/18 4:17,0.5,1,0.6,1,0.5,4
2012/8/18 4:18,0.5,2,0.5,1,0.4,2
2012/8/18 4:19,0.4,2,0.5,1,0.3,6
2012/8/18 4:20,0.3,3,0.4,1,0.4,16
2012/8/18 4:21,0.3,2,0.3,1,0.5,15
2012/8/18 4:22,0.2,2,0.3,16,0.9,15
2012/8/18 4:23,0.3,2,0.3,16,1,16
2012/8/18 4:24,0.2,2,0.3,16,0.4,15
2012/8/18 4:25,0.2,2,0.2,1,0.3,16
2012/8/18 4:26,0.2,16,0.2,1,0.1,15
2012/8/18 4:27,0.2,15,0.2,1,0.1,14
2012/8/18 4:28,0.2,15,0.2,2,0.3,15
2012/8/18 4:29,0.2,15,0.2,2,0.3,15
2012/8/18 4:30,0.1,15,0.2,3,0,15
2012/8/18 4:31,0.1,15,0.1,2,0.1,8
2012/8/18 4:32,0.1,15,0.1,2,0.1,7
2012/8/18 4:33,0,14,0.1,2,0.3,8
2012/8/18 4:34,0,13,0,2,0.1,9
2012/8/18 4:35,0,12,0,2,0.1,9
2012/8/18 4:36,0,11,0,16,0.1,9
2012/8/18 4:37,0,10,0,15,0.4,10
2012/8/18 4:38,0.1,10,0.1,15,0.3,10
2012/8/18 4:39,0,10,0,15,0.1,15
2012/8/18 4:40,0,10,0,15,0.1,16
2012/8/18 4:41,0,10,0,15,0.1,16
2012/8/18 4:42,0,12,0,15,0.1,1
2012/8/18 4:43,0,13,0,10,0.1,13
2012/8/18 4:44,0.1,14,0.1,10,0.4,13
2012/8/18 4:45,0.1,14,0.1,10,0.8,13
2012/8/18 4:46,0.2,14,0.2,14,0.9,14
2012/8/18 4:47,0.2,15,0.2,14,0.6,15
2012/8/18 4:48,0.2,15,0.2,14,0.4,14
2012/8/18 4:49,0.2,15,0.2,14,0.6,16
2012/8/18 4:50,0.3,15,0.3,15,0.8,15
2012/8/18 4:51,0.3,15,0.3,15,0.9,16
2012/8/18 4:52,0.4,14,0.4,15,1,16
2012/8/18 4:53,0.5,15,0.5,15,1.3,16
2012/8/18 4:54,0.6,15,0.6,15,1.6,15
2012/8/18 4:55,0.7,15,0.7,15,1.4,15
2012/8/18 4:56,0.7,15,0.7,15,1.3,15
2012/8/18 4:57,0.7,15,0.7,15,1.3,16
2012/8/18 4:58,0.8,15,0.8,15,0.8,14
2012/8/18 4:59,0.8,15,0.8,15,0.5,15
2012/8/18 5:00,0.7,15,0.7,15,0,15
2012/8/18 5:01,0.6,15,0.7,15,0.1,15
2012/8/18 5:02,0.6,15,0.6,15,0.3,7
2012/8/18 5:03,0.5,15,0.6,15,0.5,7
2012/8/18 5:04,0.4,16,0.5,15,0.1,7
2012/8/18 5:05,0.3,16,0.4,15,0,7
2012/8/18 5:06,0.2,16,0.3,15,0.4,15
2012/8/18 5:07,0.2,16,0.2,15,0.5,15
2012/8/18 5:08,0.1,1,0.2,15,0.5,16
2012/8/18 5:09,0.1,1,0.1,15,0.6,16
2012/8/18 5:10,0.1,1,0.1,15,0.3,15
2012/8/18 5:11,0.2,16,0.2,15,0.4,15
2012/8/18 5:12,0.2,16,0.2,15,0.4,15
2012/8/18 5:13,0.2,15,0.2,15,0.6,15
2012/8/18 5:14,0.3,15,0.3,16,0.8,15
2012/8/18 5:15,0.3,15,0.3,16,0.8,15
2012/8/18 5:16,0.4,15,0.4,15,0.8,14
2012/8/18 5:17,0.3,15,0.4,15,0.5,14
2012/8/18 5:18,0.3,15,0.3,15,0.4,15
2012/8/18 5:19,0.3,15,0.3,15,0.5,14
2012/8/18 5:20,0.3,15,0.3,15,0.4,14
2012/8/18 5:21,0.3,15,0.3,15,0.1,14
2012/8/18 5:22,0.3,14,0.3,15,0.3,14
2012/8/18 5:23,0.2,14,0.3,15,0.1,14
2012/8/18 5:24,0.2,14,0.2,15,0.6,13
2012/8/18 5:25,0.2,14,0.2,15,0.8,14
2012/8/18 5:26,0.1,14,0.2,15,0.4,15
2012/8/18 5:27,0.1,14,0.1,15,0.3,16
2012/8/18 5:28,0.1,14,0.1,15,0,15
2012/8/18 5:29,0.1,14,0.1,15,0.1,12
2012/8/18 5:30,0.1,14,0.1,15,0.8,12
2012/8/18 5:31,0.2,14,0.2,15,0.6,13
2012/8/18 5:32,0.2,13,0.2,14,0.5,11
2012/8/18 5:33,0.2,13,0.2,14,0.5,8
2012/8/18 5:34,0.2,13,0.2,14,0.5,8
2012/8/18 5:35,0.2,12,0.2,14,0.6,10
2012/8/18 5:36,0.2,12,0.2,14,0.4,9
2012/8/18 5:37,0.2,11,0.2,14,0.6,5
2012/8/18 5:38,0.2,10,0.2,14,0.5,3
2012/8/18 5:39,0.3,9,0.3,10,0.3,4
2012/8/18 5:40,0.2,9,0.3,10,0,9
2012/8/18 5:41,0.2,9,0.2,10,0.5,10
2012/8/18 5:42,0.2,8,0.2,10,0.4,9
2012/8/18 5:43,0.2,9,0.2,10,0.4,10
2012/8/18 5:44,0.2,9,0.2,10,0.5,9
2012/8/18 5:45,0.2,9,0.2,10,0.5,9
2012/8/18 5:46,0.2,9,0.2,10,0.8,9
2012/8/18 5:47,0.2,9,0.2,10,1,9
2012/8/18 5:48,0.2,10,0.2,10,0.4,10
2012/8/18 5:49,0.2,10,0.2,9,0.8,8
2012/8/18 5:50,0.3,10,0.3,10,0.5,9
2012/8/18 5:51,0.3,9,0.3,10,0.6,8
2012/8/18 5:52,0.3,9,0.3,10,1,9
2012/8/18 5:53,0.3,9,0.3,10,0.8,9
2012/8/18 5:54,0.3,9,0.3,10,0.3,10
2012/8/18 5:55,0.3,9,0.3,10,0.6,10
2012/8/18 5:56,0.4,9,0.4,9,1.1,10
2012/8/18 5:57,0.4,9,0.4,9,0.9,9
2012/8/18 5:58,0.4,9,0.4,9,0.9,10
2012/8/18 5:59,0.4,10,0.4,9,0.8,10
2012/8/18 6:00,0.4,10,0.4,9,0.8,11
2012/8/18 6:06,0.8,12,0.8,12,0.9,12
2012/8/18 6:07,0.6,12,0.8,12,0.9,12
2012/8/18 6:08,0.4,11,0.5,12,0.6,7
2012/8/18 6:09,0.3,11,0.4,12,0.1,12
2012/8/18 6:10,0.2,10,0.3,12,0.4,8
2012/8/18 6:11,0.2,9,0.2,12,0.9,8
2012/8/18 6:12,0.3,9,0.3,12,1.1,9
2012/8/18 6:13,0.3,9,0.3,12,0.9,10
2012/8/18 6:14,0.3,9,0.3,12,1,10
2012/8/18 6:15,0.3,9,0.3,12,0.6,10
2012/8/18 6:16,0.4,9,0.4,12,1.3,8
2012/8/18 6:17,0.4,8,0.4,12,1.4,9
2012/8/18 6:18,0.4,8,0.4,10,1,8
2012/8/18 6:19,0.5,8,0.5,8,1.3,8
2012/8/18 6:20,0.6,9,0.6,9,1.1,9
2012/8/18 6:21,0.6,8,0.6,9,0.8,9
2012/8/18 6:22,0.5,8,0.5,9,0.6,6
2012/8/18 6:23,0.5,8,0.5,9,0.3,7
2012/8/18 6:24,0.5,8,0.5,9,1,5
2012/8/18 6:25,0.5,8,0.5,9,0.9,8
2012/8/18 6:26,0.5,8,0.5,9,0.9,7
2012/8/18 6:27,0.5,8,0.5,9,1,8
2012/8/18 6:28,0.5,8,0.5,9,0.9,9
2012/8/18 6:29,0.4,8,0.5,9,0.5,7
2012/8/18 6:30,0.3,7,0.4,9,0.3,5
2012/8/18 6:31,0.3,7,0.3,8,0.3,10
2012/8/18 6:32,0.3,8,0.3,8,0.6,8
2012/8/18 6:33,0.3,7,0.3,8,0.6,10
2012/8/18 6:34,0.3,8,0.3,8,0.6,11
2012/8/18 6:35,0.3,8,0.3,8,0.5,10
2012/8/18 6:36,0.2,9,0.3,8,0.1,11
2012/8/18 6:37,0.2,9,0.2,8,0.1,7
2012/8/18 6:38,0.1,10,0.2,8,0.3,13
2012/8/18 6:39,0.1,10,0.1,8,0.1,15
2012/8/18 6:40,0.1,10,0.1,7,0.1,15
2012/8/18 6:41,0.1,11,0.1,7,0.1,1
2012/8/18 6:42,0.1,10,0.1,8,0,9
2012/8/18 6:43,0.1,10,0.1,7,0.1,5
2012/8/18 6:44,0,9,0.1,8,0.4,8
2012/8/18 8:11,0.8,10,0.8,10,0.8,10
2012/8/18 8:12,0.8,10,0.8,10,1.1,10
2012/8/18 8:13,0.7,10,0.8,10,1.1,10
2012/8/18 8:14,0.5,10,0.7,10,0.6,11
2012/8/18 8:15,0.4,10,0.5,10,0.1,16
2012/8/18 8:16,0.5,9,0.5,10,1.6,8
2012/8/18 8:17,0.6,9,0.6,10,2,8
2012/8/18 8:18,0.6,9,0.7,10,1.5,9
2012/8/18 8:19,0.6,8,0.6,10,1,6
2012/8/18 8:20,0.8,8,0.8,10,2.7,8
2012/8/18 8:21,0.9,8,0.9,8,2.7,9
2012/8/18 8:22,0.8,8,0.9,8,2.4,8
2012/8/18 8:23,0.8,8,0.8,8,0.9,8
2012/8/18 8:24,0.9,8,0.9,8,1.3,10
2012/8/18 8:25,1,8,1,8,1.8,6
2012/8/18 8:26,1,8,1,8,1.8,7
2012/8/18 8:27,1,8,1,8,1.3,8
2012/8/18 8:28,0.9,8,1,8,0.5,7
2012/8/18 8:29,0.9,8,0.9,8,0.8,13
2012/8/18 8:30,0.8,8,0.9,8,0.9,9
2012/8/18 8:31,0.6,9,0.7,8,1.3,10
2012/8/18 8:32,0.6,9,0.6,8,1.6,11
2012/8/18 8:33,0.7,9,0.7,8,1.3,7
2012/8/18 8:34,0.7,9,0.7,8,2,9
2012/8/18 8:35,0.7,9,0.8,8,2.5,8
2012/8/18 8:36,0.8,9,0.8,8,3.1,9
2012/8/18 8:37,0.8,9,0.8,8,2,7
2012/8/18 8:38,0.9,9,0.9,8,1.9,8
2012/8/18 8:39,1,9,1,9,2,8
2012/8/18 8:40,1.1,8,1.1,9,2.2,9
2012/8/18 8:41,1.2,8,1.2,8,2.2,9
2012/8/18 8:42,1.2,9,1.2,8,1.3,12
2012/8/18 8:43,1.1,9,1.2,8,0.8,10
2012/8/18 8:44,1.2,9,1.2,8,2.5,7
2012/8/18 8:45,1.1,9,1.2,8,2.4,9
2012/8/18 8:46,1.1,9,1.1,8,1.8,8
2012/8/18 8:47,1,9,1.1,8,0.9,10
2012/8/18 8:48,1,9,1,8,0.9,8
2012/8/18 8:49,0.8,9,0.9,8,0.6,7
2012/8/18 8:50,0.8,9,0.8,8,0.5,10
2012/8/18 8:51,0.8,9,0.8,8,1.1,8
2012/8/18 8:52,0.8,8,0.8,8,1.5,7
2012/8/18 8:53,0.8,8,0.8,9,0.8,4
2012/8/18 8:54,0.6,8,0.8,9,0.4,1
2012/8/18 8:55,0.5,8,0.6,9,0.6,5
2012/8/18 8:56,0.5,8,0.5,9,0.6,11
2012/8/18 8:57,0.4,7,0.5,9,0.6,8
2012/8/18 8:58,0.4,7,0.4,9,0.8,6
2012/8/18 8:59,0.5,7,0.5,9,1.3,5
2012/8/18 9:00,0.5,7,0.5,9,1,8
2012/8/18 9:01,0.5,7,0.5,9,1.3,6
2012/8/18 9:02,0.5,7,0.5,8,1.6,7
2012/8/18 9:03,0.6,7,0.6,8,1.8,7
2012/8/18 9:04,0.7,7,0.7,7,2,8
2012/8/18 9:05,0.7,8,0.7,7,1,10
2012/8/18 9:06,0.8,8,0.8,8,2,7
2012/8/18 9:07,0.9,8,0.9,8,2.5,7
2012/8/18 9:08,1,8,1,8,2,8
2012/8/18 9:09,1,8,1,8,1.8,9
2012/8/18 9:10,1,8,1,8,1.1,9
2012/8/18 9:11,1.1,8,1.1,8,2.9,9
2012/8/18 9:12,1,8,1.1,8,1.9,11
2012/8/18 9:13,1,9,1,8,2.7,8
2012/8/18 9:14,1.1,9,1.1,8,3,8
2012/8/18 9:15,1.1,8,1.1,8,1.4,8
2012/8/18 9:16,1.1,8,1.1,8,0.6,5
2012/8/18 9:17,1,8,1,8,3.1,8
2012/8/18 9:18,1,8,1,8,2.9,8
2012/8/18 9:19,1,8,1,8,2.5,8
2012/8/18 9:20,1,8,1,8,1.4,8
2012/8/18 9:21,1,8,1,8,2.6,8
2012/8/18 9:22,1.2,8,1.2,8,3.2,9
2012/8/18 9:23,1.2,8,1.2,8,2.1,8
2012/8/18 9:24,1.1,8,1.2,8,1.9,9
2012/8/18 9:25,1.1,8,1.1,8,1.6,12
2012/8/18 9:26,1.1,9,1.1,8,1.5,9
2012/8/18 9:27,1.2,9,1.2,8,2.7,8
2012/8/18 9:28,1.2,9,1.2,8,2.6,8
2012/8/18 9:29,1.1,10,1.2,8,0.9,11
2012/8/18 9:30,1.2,10,1.2,8,2.2,9
2012/8/18 9:31,1.2,10,1.2,8,2,10
2012/8/18 9:32,1.1,10,1.2,8,2.1,9
2012/8/18 9:33,1.1,10,1.1,8,1.1,10
2012/8/18 9:34,1.1,10,1.1,9,1.3,10
2012/8/18 9:35,1,10,1.1,9,1,8
2012/8/18 9:36,1,9,1,9,1.3,7
2012/8/18 9:37,0.9,9,1,9,0.9,9
2012/8/18 9:38,0.8,10,0.9,9,0.8,13
2012/8/18 9:39,0.8,9,0.8,10,0.8,9
2012/8/18 9:40,0.7,9,0.8,10,1,7
2012/8/18 9:41,0.6,9,0.7,10,0.6,10
2012/8/18 9:42,0.5,9,0.6,10,1.5,9
2012/8/18 9:43,0.5,8,0.5,10,1.4,3
2012/8/18 9:44,0.5,8,0.5,10,1,2
2012/8/18 9:45,0.5,8,0.5,10,0.4,7
2012/8/18 9:46,0.4,9,0.5,9,1,8
2012/8/18 9:47,0.6,9,0.6,9,3.2,10
2012/8/18 9:48,0.6,9,0.6,10,2.1,7
2012/8/18 9:49,0.7,9,0.7,9,2.6,8
2012/8/18 9:50,0.8,9,0.8,9,2.2,9
2012/8/18 9:51,0.9,9,0.9,9,2,9
2012/8/18 9:52,1,9,1,8,3.2,9
2012/8/18 9:53,1.1,9,1.1,8,3.2,8
2012/8/18 9:54,1.1,9,1.1,8,1.6,12
2012/8/18 9:55,1.1,9,1.1,8,0.6,7
2012/8/18 9:56,1.1,8,1.1,8,1,10
2012/8/18 9:57,1,8,1.1,8,2.7,9
2012/8/18 9:58,1.1,8,1.1,8,2.2,9
2012/8/18 9:59,1,9,1,8,1.8,9
2012/8/18 10:00,1,9,1,8,1.6,10
2012/8/18 10:01,1,9,1,8,2.7,10
2012/8/18 10:02,1,10,1,8,1.3,10
2012/8/18 10:03,0.8,10,0.9,9,0.8,13
2012/8/18 10:04,1,10,1,9,3.5,7
2012/8/18 10:05,1.1,10,1.1,9,2.1,6
2012/8/18 10:06,1.1,9,1.1,8,1.4,6
2012/8/18 10:07,1.1,10,1.1,8,1.5,11
2012/8/18 10:08,1.1,10,1.1,10,1.9,11
2012/8/18 10:09,1.1,10,1.1,10,1.5,12
2012/8/18 10:10,1,10,1.1,10,1.3,7
2012/8/18 10:11,1.1,10,1.1,10,3.1,8
2012/8/18 10:12,1.2,9,1.2,9,3.6,8
2012/8/18 10:13,1.3,9,1.3,9,2.5,9
2012/8/18 10:14,1.2,10,1.3,9,3,8
2012/8/18 10:15,1.2,10,1.3,9,2.1,9
2012/8/18 10:16,1.2,10,1.2,9,1.4,10
2012/8/18 10:17,1.3,10,1.3,9,1.6,11
2012/8/18 10:18,1.2,10,1.2,9,1.3,11
2012/8/18 10:19,1.2,10,1.2,9,1.5,12
2012/8/18 10:20,1.2,10,1.2,9,1.3,14
2012/8/18 10:21,1.1,11,1.2,9,2.2,12
2012/8/18 10:22,1,11,1.1,9,1.3,10
2012/8/18 10:23,1,11,1,9,0.9,12
2012/8/18 10:24,0.8,11,1,10,0.5,15
2012/8/18 10:25,0.7,11,0.8,10,1,9
2012/8/18 10:26,0.7,11,0.7,10,1.8,8
2012/8/18 10:27,0.7,11,0.7,10,1.8,9
2012/8/18 10:28,0.8,10,0.8,10,2.1,6
2012/8/18 10:29,0.8,9,0.8,10,1.9,6
2012/8/18 10:30,0.8,8,0.8,10,2.1,7
2012/8/18 10:31,0.8,8,0.8,11,1.8,7
2012/8/18 10:32,0.8,7,0.8,11,2,8
2012/8/18 10:33,0.9,7,0.9,11,1.8,7
2012/8/18 10:34,1,7,1,7,2.6,9
2012/8/18 10:35,1.1,8,1.1,8,1.8,9
2012/8/18 10:36,1.1,8,1.1,8,2.6,7
2012/8/18 10:37,1.3,8,1.3,8,4.3,8
2012/8/18 10:38,1.3,8,1.3,8,3,7
2012/8/18 10:39,1.3,8,1.4,8,1.4,8
2012/8/18 10:40,1.2,8,1.3,8,1.8,6
2012/8/18 10:41,1.4,8,1.4,8,3.6,10
2012/8/18 10:42,1.5,8,1.5,8,3.8,7
2012/8/18 10:43,1.7,8,1.7,8,5,9
2012/8/18 10:44,1.8,8,1.8,8,4.2,10
2012/8/18 10:45,2,8,2,8,3.8,10
2012/8/18 10:46,2,8,2,8,3,8
2012/8/18 10:47,1.9,8,2,8,3,7
2012/8/18 10:48,1.8,8,1.9,8,2.5,7
2012/8/18 10:49,1.9,8,1.9,8,2.1,6
2012/8/18 10:50,1.9,8,1.9,8,2.5,9
2012/8/18 10:51,1.9,8,2,8,2.7,9
2012/8/18 10:52,1.7,9,1.9,8,1.6,9
2012/8/18 10:53,1.5,9,1.7,8,1.4,11
2012/8/18 10:54,1.5,9,1.5,8,3.1,8
2012/8/18 10:55,1.3,9,1.5,8,2.9,10
2012/8/18 10:56,1.4,9,1.4,8,3.2,7
2012/8/18 10:57,1.4,9,1.4,8,3.1,8
2012/8/18 10:58,1.5,9,1.5,8,3.2,8
2012/8/18 10:59,1.5,9,1.5,8,2.5,8
2012/8/18 11:00,1.5,9,1.5,8,2.4,7
2012/8/18 11:01,1.5,8,1.5,8,1.9,8
2012/8/18 11:02,1.5,8,1.5,9,2,10
2012/8/18 11:03,1.6,9,1.6,9,2.9,10
2012/8/18 11:22,1.3,10,1.3,10,1.3,10
2012/8/18 11:23,1.3,10,1.6,10,2,8
2012/8/18 11:24,1,10,1.2,10,1,10
2012/8/18 11:25,0.8,10,0.9,10,1.5,9
2012/8/18 11:26,0.8,9,0.8,10,1.8,9
2012/8/18 11:27,0.8,9,0.8,10,1.6,11
2012/8/18 11:28,0.8,10,0.8,10,1.3,9
2012/8/18 11:29,0.8,10,0.8,10,1,12
2012/8/18 11:30,0.9,10,0.9,10,2.1,8
2012/8/18 11:31,1,10,1,10,2.5,12
2012/8/18 11:32,0.9,11,1,10,1.5,13
2012/8/18 11:33,0.9,11,0.9,10,1,16
2012/8/18 11:34,0.8,12,0.9,10,0.8,16
2012/8/18 11:35,0.8,12,0.8,10,0.5,15
2012/8/18 11:36,0.8,12,0.8,10,1.4,7
2012/8/18 11:37,0.8,12,0.8,10,1.3,8
2012/8/18 11:38,0.8,12,0.8,10,2,9
2012/8/18 11:39,0.9,10,0.9,10,2.1,9
2012/8/18 11:40,0.8,8,0.9,10,2.2,8
2012/8/18 11:41,0.8,7,0.8,10,1.9,9
2012/8/18 11:42,0.8,7,0.8,11,1.8,9
2012/8/18 11:43,0.8,7,0.8,11,1.8,8
2012/8/18 11:44,0.9,8,0.9,11,1.6,9
2012/8/18 11:45,1,8,1,8,2.2,9
2012/8/18 11:46,1.1,8,1.1,8,1.9,8
2012/8/18 11:47,1,9,1.1,8,1.1,11
2012/8/18 11:48,1,9,1,8,1.8,9
2012/8/18 11:49,0.9,9,1,8,2.2,9
2012/8/18 11:50,1,9,1,8,2.2,11
2012/8/18 11:51,1,9,1,8,2.7,9
2012/8/18 11:52,1,9,1,8,2.2,8
2012/8/18 11:53,1,10,1,8,2.4,10
2012/8/18 11:54,1.1,10,1.1,8,2.2,8
2012/8/18 11:55,1,10,1.1,8,1.1,12
2012/8/18 11:56,1,11,1,8,1.8,13
2012/8/18 11:57,1.1,11,1.1,10,2,13
2012/8/18 11:58,1.2,11,1.2,11,2.2,12
2012/8/18 11:59,1.3,12,1.3,11,2,14
2012/8/18 12:00,1.2,12,1.3,11,1.1,13
2012/8/18 12:01,1.2,12,1.2,11,1.8,13
2012/8/18 12:02,1.3,12,1.3,11,2.1,14
2012/8/18 12:03,1.3,13,1.3,11,1.8,14
2012/8/18 12:04,1.3,13,1.3,11,2,13
2012/8/18 12:05,1.4,13,1.4,13,1.6,13
2012/8/18 12:06,1.3,13,1.4,13,1.4,13
2012/8/18 12:07,1.3,13,1.3,13,1.9,13
2012/8/18 12:08,1.2,13,1.3,13,2,12
2012/8/18 12:09,1.2,13,1.2,13,2,13
2012/8/18 12:10,1.3,13,1.3,13,1.6,12
2012/8/18 12:11,1.2,13,1.2,13,1.4,13
2012/8/18 12:12,1.1,13,1.2,13,1.3,13
2012/8/18 12:13,1,13,1.1,13,0.9,11
2012/8/18 12:14,0.9,13,1,13,0.9,13
2012/8/18 12:15,0.8,13,0.9,13,0.9,12
2012/8/18 12:16,0.8,13,0.8,13,1,15
2012/8/18 12:17,0.8,13,0.8,13,1,14
2012/8/18 12:18,0.7,14,0.8,13,0.9,14
2012/8/18 12:19,0.6,14,0.7,13,0.9,1
2012/8/18 12:20,0.6,14,0.6,13,1.6,16
2012/8/18 12:21,0.6,15,0.6,13,1.5,1
2012/8/18 12:22,0.6,15,0.6,13,1.8,16
2012/8/18 12:23,0.7,15,0.7,13,1.4,15
2012/8/18 12:24,0.8,15,0.8,13,1.4,16
2012/8/18 12:25,0.8,16,0.8,13,1.9,15
2012/8/18 12:26,0.9,16,0.9,16,2,15
2012/8/18 12:27,0.9,16,0.9,16,1.5,16
2012/8/18 12:28,1,16,1,16,1.5,15
2012/8/18 12:29,1,16,1,16,1.3,15
2012/8/18 12:30,1,16,1,16,1.1,16
2012/8/18 12:31,1,16,1,16,1.8,16
2012/8/18 12:32,1.1,16,1.1,16,1.8,16
2012/8/18 12:33,1.1,16,1.1,16,1.9,1
2012/8/18 12:34,1.2,16,1.2,16,2.4,16
2012/8/18 12:35,1.3,16,1.3,16,2.2,16
2012/8/18 12:36,1.3,16,1.3,16,1.8,16
2012/8/18 12:37,1.3,16,1.3,16,1.6,1
2012/8/18 12:38,1.3,16,1.3,16,1.6,1
2012/8/18 12:39,1.3,16,1.3,16,1,16
2012/8/18 12:40,1.2,16,1.3,16,0.9,16
2012/8/18 12:41,1.1,1,1.2,16,0.6,1
2012/8/18 12:42,1,1,1.1,16,1.1,1
2012/8/18 12:43,0.9,1,1,16,0.8,1
2012/8/18 12:44,0.8,1,0.9,16,0.8,1
2012/8/18 12:45,0.6,1,0.8,16,0.9,2
2012/8/18 12:46,0.5,1,0.6,16,0.6,2
2012/8/18 12:47,0.5,1,0.5,16,0.8,16
2012/8/18 12:48,0.5,1,0.5,16,1.4,2
2012/8/18 12:49,0.5,1,0.5,16,1.4,16
2012/8/18 12:50,0.5,1,0.5,16,1.5,16
2012/8/18 12:51,0.6,1,0.6,16,1.8,1
2012/8/18 12:52,0.8,1,0.8,1,2.7,16
2012/8/18 12:53,0.8,1,0.8,1,1.9,16
2012/8/18 12:54,1,1,1,1,2,16
2012/8/18 12:55,1,1,1,1,1.8,1
2012/8/18 12:56,1.1,16,1.1,1,1.8,16
2012/8/18 12:57,1.2,16,1.2,16,1.9,16
2012/8/18 12:58,1.3,16,1.3,16,1.6,16
2012/8/18 12:59,1.3,16,1.3,16,2,16
2012/8/18 13:00,1.3,16,1.3,16,1.5,16
2012/8/18 13:01,1.2,16,1.3,16,1.5,15
2012/8/18 13:02,1.2,16,1.2,16,1.8,16
2012/8/18 13:03,1.2,16,1.2,16,2,1
2012/8/18 13:04,1.2,16,1.2,16,2,16
2012/8/18 13:05,1.1,16,1.2,16,1.3,16
2012/8/18 13:06,1.1,16,1.1,16,1.1,16
2012/8/18 13:07,1,16,1.1,16,0.6,2
2012/8/18 13:08,0.9,16,1,16,0.6,15
2012/8/18 13:09,0.7,16,0.9,16,0.4,1
2012/8/18 13:10,0.7,1,0.7,16,0.3,1
2012/8/18 13:11,0.6,16,0.7,16,0.5,15
2012/8/18 13:12,0.5,1,0.6,16,0.4,15
2012/8/18 13:13,0.4,16,0.5,16,0.9,10
2012/8/18 13:14,0.3,16,0.4,16,0.6,13
2012/8/18 13:15,0.3,16,0.3,16,0.6,13
2012/8/18 13:16,0.3,15,0.3,16,1.4,16
2012/8/18 13:17,0.3,15,0.3,16,0.5,16
2012/8/18 13:18,0.3,15,0.3,16,0.5,12
2012/8/18 13:19,0.3,15,0.3,16,1,6
2012/8/18 13:20,0.4,14,0.4,1,1.3,7
2012/8/18 13:27,1,2,1,2,1,2
2012/8/18 13:28,1.2,2,1.3,2,2,2
2012/8/18 13:29,1,2,1.2,2,1.6,2
2012/8/18 13:30,1.3,2,1.3,2,2.5,3
2012/8/18 13:31,1.4,3,1.4,3,2.1,4
2012/8/18 13:32,1.3,3,1.4,3,1.6,6
2012/8/18 13:33,1.3,4,1.3,3,1.8,2
2012/8/18 13:34,1.2,3,1.3,3,1.9,3
2012/8/18 13:35,1.3,3,1.3,3,2.2,2
2012/8/18 13:36,1.3,3,1.3,3,2.1,2
2012/8/18 13:37,1.4,3,1.4,3,2.2,2
2012/8/18 13:38,1.4,3,1.4,3,2.2,3
2012/8/18 13:39,1.5,3,1.5,3,2.1,5
2012/8/18 13:40,1.3,3,1.5,3,1.4,3
2012/8/18 13:41,1.3,3,1.3,3,1.4,3
2012/8/18 13:42,1.2,3,1.3,3,1,2
2012/8/18 13:43,1.2,3,1.3,3,2.2,2
2012/8/18 13:44,1.3,3,1.3,3,2.5,6
2012/8/18 13:45,1.3,3,1.3,3,2,4
2012/8/18 13:46,1.3,4,1.3,3,2.6,7
2012/8/18 13:47,1.2,4,1.3,3,2,7
2012/8/18 13:48,1.1,4,1.2,3,1.1,6
2012/8/18 13:49,1,5,1.1,3,0.6,6
2012/8/18 13:50,1,5,1,3,1.1,3
2012/8/18 13:51,0.9,5,1,3,1,6
2012/8/18 13:52,0.9,5,0.9,3,1,5
2012/8/18 13:53,0.9,5,0.9,3,1.5,2
2012/8/18 13:54,0.9,4,0.9,3,2.1,2
2012/8/18 13:55,0.8,3,0.9,3,1.5,1
2012/8/18 16:57,1.6,6,1.6,6,3.1,9
2012/8/18 16:58,1.4,6,2.1,6,3.1,9
2012/8/18 16:59,2.2,6,2.2,6,4.1,5
2012/8/18 17:00,2.2,6,2.3,6,3.8,5
2012/8/18 17:01,2.1,6,2.2,6,2.7,7
2012/8/18 17:02,2.1,6,2.1,6,2.9,5
2012/8/18 17:03,2.1,6,2.1,6,3.6,6
2012/8/18 17:04,1.9,6,2.1,6,2,6
2012/8/18 17:05,1.8,6,1.9,6,2.4,5
2012/8/18 17:06,1.8,6,1.8,6,3.2,5
2012/8/18 17:07,1.8,6,1.8,6,3.5,6
2012/8/18 17:08,1.8,6,1.8,6,3.1,5
2012/8/18 17:09,1.7,6,1.8,6,2.7,6
2012/8/18 17:10,1.7,6,1.7,6,2.7,6
2012/8/18 17:11,1.7,6,1.7,6,3.3,5
2012/8/18 17:12,1.7,6,1.7,6,3.1,5